Regional Weather Roundup
Issued by NWS

Home | Current Version | Previous Version | Graphics & Text | Print | Product List | Glossary On
Versions: 1 2 3 4 5 6 7 8 9 10 11 12 13 14 15 16 17 18 19 20 21 22 23 24 25 26 27 28 29 30 31 32 33 34 35 36 37 38 39 40 41 42 43 44 45 46 47 48 49 50
000
ASUS43 KFSD 202102
RWRSD

WEATHER ROUNDUP FOR SOUTH DAKOTA
NATIONAL WEATHER SERVICE SIOUX FALLS SD
300 PM CST SAT DEC 20 2014

NOTE: "FAIR" INDICATES FEW OR NO CLOUDS BELOW 12,000 FEET WITH NO
SIGNIFICANT WEATHER AND/OR OBSTRUCTIONS TO VISIBILITY.


SDZ001>005-009-010-012>017-202200-
NORTHWEST AND NORTH CENTRAL SOUTH DAKOTA

CITY           SKY/WX    TMP DP  RH WIND       PRES   REMARKS
BUFFALO          N/A     46  25  43 W10       29.78F
FAITH            N/A     47  30  51 W8        29.84F
MOBRIDGE       PTSUNNY   32  28  85 SE12      29.84F WCI  23
$$

SDZ012>016-024>037-041>051-057-063-072>074-202200-
SOUTHWEST AND SOUTH CENTRAL SOUTH DAKOTA

CITY           SKY/WX    TMP DP  RH WIND       PRES   REMARKS
RAPID CTY ARPT MOSUNNY   51  26  37 N6        29.87F
PIERRE         CLOUDY    28  25  88 SE5       29.90S WCI  23
CUSTER         CLOUDY    43  21  41 SW8       29.86F
ELLSWORTH AFB  MOSUNNY   51  27  39 N3        29.86F
PHILIP         PTSUNNY   47  28  47 SW5       29.87F
PINE RIDGE     CLOUDY    45  27  49 W6        29.89F
WINNER         MOCLDY    37  28  70 S5        29.90F
$$

SDZ004>011-016>023-039-040-202200-
NORTHEAST SOUTH DAKOTA

CITY           SKY/WX    TMP DP  RH WIND       PRES   REMARKS
ABERDEEN       CLOUDY    29  27  92 S15       29.93F FOG     WCI  18
WATERTOWN      CLOUDY    30  29  96 S10       29.96S FOG     WCI  21
SISSETON         N/A     32  30  92 SW12      29.97S WCI  23
$$

SDZ017-020-022-023-036>040-048>070-202200-
SOUTHEAST SOUTH DAKOTA

CITY           SKY/WX    TMP DP  RH WIND       PRES   REMARKS
SIOUX FALLS    CLOUDY    31  29  92 S12       30.01F WCI  22
HURON          CLOUDY    28  27  96 S8        29.97S FOG     WCI  20
MITCHELL       CLOUDY    31  30  96 S14       29.98S FOG     WCI  21
YANKTON        CLOUDY    32  28  86 SE8       30.02R WCI  25
$$

ABBREVIATIONS USED IN REMARKS
   TC - TEMPERATURE IN CELSIUS
  WCI - WIND CHILL INDEX
   HX - HEAT INDEX
  VSB - VISIBILITY



USA.gov is the U.S. government's official web portal to all federal, state and local government web resources and services.